TimeEDT,TemperatureF,Dew PointF,Humidity,Sea Level PressureIn,VisibilityMPH,Wind Direction,Wind SpeedMPH,Gust SpeedMPH,PrecipitationIn,Events,Conditions,WindDirDegrees,DateUTC
12:51 AM,62.1,55.0,78,30.14,10.0,South,4.6,-,N/A,,Scattered Clouds,170,2013-06-06 04:51:00
1:48 AM,60.8,55.4,82,30.13,10.0,SE,4.6,-,N/A,,Scattered Clouds,130,2013-06-06 05:48:00
1:51 AM,61.0,55.9,83,30.13,10.0,SE,4.6,-,N/A,,Scattered Clouds,140,2013-06-06 05:51:00
2:51 AM,61.0,55.9,83,30.14,10.0,ESE,4.6,-,N/A,,Scattered Clouds,110,2013-06-06 06:51:00
3:32 AM,60.8,55.4,82,30.13,10.0,SE,3.5,-,N/A,,Mostly Cloudy,140,2013-06-06 07:32:00
3:41 AM,60.8,55.4,82,30.13,10.0,ESE,3.5,-,N/A,,Mostly Cloudy,120,2013-06-06 07:41:00
3:51 AM,61.0,55.9,83,30.13,10.0,East,3.5,-,N/A,,Mostly Cloudy,100,2013-06-06 07:51:00
4:17 AM,60.8,55.4,82,30.14,10.0,East,3.5,-,N/A,,Mostly Cloudy,100,2013-06-06 08:17:00
4:34 AM,60.8,55.4,82,30.14,10.0,ESE,3.5,-,N/A,,Scattered Clouds,110,2013-06-06 08:34:00
4:51 AM,61.0,55.0,81,30.14,10.0,East,4.6,-,N/A,,Mostly Cloudy,90,2013-06-06 08:51:00
5:51 AM,60.1,55.0,83,30.13,9.0,East,5.8,-,N/A,,Mostly Cloudy,90,2013-06-06 09:51:00
6:15 AM,60.8,55.4,82,30.13,10.0,ENE,6.9,-,N/A,,Mostly Cloudy,60,2013-06-06 10:15:00
6:51 AM,61.0,55.0,81,30.14,10.0,ESE,5.8,-,N/A,,Mostly Cloudy,110,2013-06-06 10:51:00
7:20 AM,60.8,55.4,82,30.14,9.0,SE,6.9,-,N/A,,Mostly Cloudy,130,2013-06-06 11:20:00
7:51 AM,62.1,54.0,75,30.14,9.0,SE,6.9,-,N/A,,Mostly Cloudy,130,2013-06-06 11:51:00
8:51 AM,64.9,53.1,65,30.13,10.0,SSE,4.6,-,N/A,,Mostly Cloudy,150,2013-06-06 12:51:00
9:51 AM,69.1,52.0,54,30.12,10.0,South,10.4,17.3,N/A,,Mostly Cloudy,170,2013-06-06 13:51:00
10:51 AM,71.1,50.0,47,30.12,10.0,SE,13.8,18.4,N/A,,Mostly Cloudy,130,2013-06-06 14:51:00
11:51 AM,70.0,46.0,42,30.11,10.0,SE,15.0,20.7,N/A,,Mostly Cloudy,140,2013-06-06 15:51:00
12:51 PM,71.1,44.1,38,30.10,10.0,ESE,13.8,-,N/A,,Mostly Cloudy,120,2013-06-06 16:51:00
1:51 PM,71.1,43.0,36,30.09,10.0,SSE,12.7,20.7,N/A,,Overcast,150,2013-06-06 17:51:00
2:51 PM,70.0,48.0,46,30.09,10.0,SSE,11.5,20.7,N/A,,Overcast,150,2013-06-06 18:51:00
3:51 PM,69.1,51.1,53,30.07,10.0,SSE,15.0,23.0,N/A,,Overcast,160,2013-06-06 19:51:00
4:51 PM,68.0,55.0,63,30.06,10.0,SE,13.8,18.4,N/A,,Overcast,130,2013-06-06 20:51:00
5:51 PM,68.0,55.0,63,30.05,10.0,SE,10.4,18.4,0.00,,Mostly Cloudy,140,2013-06-06 21:51:00
6:51 PM,66.9,57.0,70,30.05,10.0,SE,11.5,-,0.00,Rain,Light Rain,130,2013-06-06 22:51:00
7:51 PM,66.0,57.0,73,30.04,10.0,SE,13.8,17.3,0.00,Rain,Light Rain,130,2013-06-06 23:51:00
8:51 PM,64.9,57.0,75,30.04,10.0,ESE,12.7,-,0.01,Rain,Light Rain,120,2013-06-07 00:51:00
9:51 PM,64.0,57.0,78,30.04,10.0,SE,10.4,-,0.01,Rain,Light Rain,140,2013-06-07 01:51:00
10:51 PM,63.0,57.9,84,30.05,10.0,SE,6.9,-,0.02,Rain,Light Rain,140,2013-06-07 02:51:00
11:51 PM,62.1,57.9,86,30.02,10.0,East,10.4,-,0.03,Rain,Light Rain,100,2013-06-07 03:51:00